contact:dominique.lefevre@mio.osupytheas.fr, maurice.libes@osupytheas.fr, didier.mallarino@osupytheas.fr
Project:EMSO http://www.emso-fr.org/EMSO-France
Depth: 2436.0 m
Title:EMSO Ligure Ouest : Data MII capteur MICROCAT
DateTime_Computer,Latitude,Longitude,Temperature,Conductivity,Pressure,DateTime_Instrument
DateTime_Computer,Latitude,Longitude,degC,S m-1,dbar,DateTime_Instrument
2023-04-04T00:02:02Z,42.805,6.029,13.3034,4.60118,2470.437,2023-4-04T02:04:52Z
2023-04-04T00:05:05Z,42.805,6.029,13.3034,4.60114,2470.483,2023-4-04T02:07:55Z
2023-04-04T00:08:08Z,42.805,6.029,13.3034,4.60121,2470.474,2023-4-04T02:10:58Z
2023-04-04T00:11:11Z,42.805,6.029,13.3034,4.60102,2470.46,2023-4-04T02:14:01Z
2023-04-04T00:14:14Z,42.805,6.029,13.3035,4.60100,2470.46,2023-4-04T02:17:05Z
2023-04-04T00:17:17Z,42.805,6.029,13.3035,4.60108,2470.474,2023-4-04T02:20:08Z
2023-04-04T00:20:20Z,42.805,6.029,13.3032,4.60106,2470.474,2023-4-04T02:23:11Z
2023-04-04T00:23:23Z,42.805,6.029,13.3030,4.60107,2470.46,2023-4-04T02:26:14Z
2023-04-04T00:26:26Z,42.805,6.029,13.3029,4.60110,2470.497,2023-4-04T02:29:17Z
2023-04-04T00:29:29Z,42.805,6.029,13.3034,4.60116,2470.46,2023-4-04T02:32:20Z
2023-04-04T00:32:33Z,42.805,6.029,13.3038,4.60115,2470.46,2023-4-04T02:35:23Z
2023-04-04T00:35:36Z,42.805,6.029,13.3038,4.60114,2470.437,2023-4-04T02:38:26Z
2023-04-04T00:38:39Z,42.805,6.029,13.3032,4.60112,2470.483,2023-4-04T02:41:29Z
2023-04-04T00:41:42Z,42.805,6.029,13.3031,4.60108,2470.46,2023-4-04T02:44:32Z
2023-04-04T00:44:45Z,42.805,6.029,13.3034,4.60112,2470.46,2023-4-04T02:47:35Z
2023-04-04T00:47:48Z,42.805,6.029,13.3032,4.60103,2470.497,2023-4-04T02:50:38Z
2023-04-04T00:50:51Z,42.805,6.029,13.3034,4.60106,2470.46,2023-4-04T02:53:41Z
2023-04-04T00:53:54Z,42.805,6.029,13.3029,4.60111,2470.483,2023-4-04T02:56:45Z
2023-04-04T00:56:57Z,42.805,6.029,13.3032,4.60105,2470.46,2023-4-04T02:59:48Z
2023-04-04T01:00:00Z,42.805,6.029,13.3032,4.60114,2470.446,2023-4-04T03:02:51Z
2023-04-04T01:03:03Z,42.805,6.029,13.3033,4.60109,2470.474,2023-4-04T03:05:54Z
2023-04-04T01:06:06Z,42.805,6.029,13.3031,4.60102,2470.46,2023-4-04T03:08:57Z
2023-04-04T01:09:09Z,42.805,6.029,13.3031,4.60110,2470.46,2023-4-04T03:12:00Z
2023-04-04T01:12:13Z,42.805,6.029,13.3039,4.60121,2470.46,2023-4-04T03:15:03Z
2023-04-04T01:15:16Z,42.805,6.029,13.3035,4.60114,2470.507,2023-4-04T03:18:06Z
2023-04-04T01:18:19Z,42.805,6.029,13.3036,4.60113,2470.483,2023-4-04T03:21:09Z
2023-04-04T01:21:22Z,42.805,6.029,13.3032,4.60108,2470.474,2023-4-04T03:24:12Z
2023-04-04T01:24:25Z,42.805,6.029,13.3031,4.60105,2470.483,2023-4-04T03:27:15Z
2023-04-04T01:27:28Z,42.805,6.029,13.3034,4.60115,2470.483,2023-4-04T03:30:18Z
2023-04-04T01:30:31Z,42.805,6.029,13.3032,4.60123,2470.483,2023-4-04T03:33:21Z
2023-04-04T01:33:34Z,42.805,6.029,13.3033,4.60118,2470.497,2023-4-04T03:36:25Z
2023-04-04T01:36:37Z,42.805,6.029,13.3037,4.60117,2470.52,2023-4-04T03:39:28Z
2023-04-04T01:39:40Z,42.805,6.029,13.3036,4.60110,2470.497,2023-4-04T03:42:31Z
2023-04-04T01:42:43Z,42.805,6.029,13.3036,4.60111,2470.52,2023-4-04T03:45:34Z
2023-04-04T01:45:46Z,42.805,6.029,13.3031,4.60104,2470.497,2023-4-04T03:48:37Z
2023-04-04T01:48:49Z,42.805,6.029,13.3034,4.60102,2470.507,2023-4-04T03:51:40Z
2023-04-04T01:51:53Z,42.805,6.029,13.3035,4.60101,2470.483,2023-4-04T03:54:43Z
2023-04-04T01:54:56Z,42.805,6.029,13.3031,4.60105,2470.497,2023-4-04T03:57:46Z
2023-04-04T01:57:59Z,42.805,6.029,13.3032,4.60104,2470.52,2023-4-04T04:00:49Z
2023-04-04T02:01:02Z,42.805,6.029,13.3036,4.60114,2470.52,2023-4-04T04:03:52Z
2023-04-04T02:04:05Z,42.805,6.029,13.3031,4.60109,2470.507,2023-4-04T04:06:55Z
2023-04-04T02:07:08Z,42.805,6.029,13.3034,4.60104,2470.47,2023-4-04T04:09:58Z
2023-04-04T02:10:11Z,42.805,6.029,13.3032,4.60107,2470.497,2023-4-04T04:13:01Z
2023-04-04T02:13:14Z,42.805,6.029,13.3031,4.60119,2470.52,2023-4-04T04:16:05Z
2023-04-04T02:16:17Z,42.805,6.029,13.3026,4.60108,2470.507,2023-4-04T04:19:08Z
2023-04-04T02:19:20Z,42.805,6.029,13.3031,4.60108,2470.53,2023-4-04T04:22:11Z
2023-04-04T02:22:23Z,42.805,6.029,13.3032,4.60100,2470.544,2023-4-04T04:25:14Z
2023-04-04T02:25:26Z,42.805,6.029,13.3030,4.60110,2470.53,2023-4-04T04:28:17Z
2023-04-04T02:28:29Z,42.805,6.029,13.3031,4.60096,2470.544,2023-4-04T04:31:20Z
2023-04-04T02:31:32Z,42.805,6.029,13.3033,4.60100,2470.52,2023-4-04T04:34:23Z
2023-04-04T02:34:36Z,42.805,6.029,13.3029,4.60097,2470.507,2023-4-04T04:37:26Z
2023-04-04T02:37:39Z,42.805,6.029,13.3032,4.60108,2470.52,2023-4-04T04:40:29Z
2023-04-04T02:40:42Z,42.805,6.029,13.3031,4.60098,2470.53,2023-4-04T04:43:32Z
2023-04-04T02:43:45Z,42.805,6.029,13.3031,4.60107,2470.544,2023-4-04T04:46:35Z
2023-04-04T02:46:48Z,42.805,6.029,13.3027,4.60097,2470.53,2023-4-04T04:49:38Z
2023-04-04T02:49:51Z,42.805,6.029,13.3032,4.60103,2470.544,2023-4-04T04:52:41Z
2023-04-04T02:52:54Z,42.805,6.029,13.3034,4.60102,2470.567,2023-4-04T04:55:45Z
2023-04-04T02:55:57Z,42.805,6.029,13.3034,4.60104,2470.53,2023-4-04T04:58:48Z
2023-04-04T02:59:00Z,42.805,6.029,13.3032,4.60101,2470.507,2023-4-04T05:01:51Z
2023-04-04T03:02:03Z,42.805,6.029,13.3035,4.60107,2470.567,2023-4-04T05:04:54Z
2023-04-04T03:05:06Z,42.805,6.029,13.3034,4.60098,2470.553,2023-4-04T05:07:57Z
2023-04-04T03:08:09Z,42.805,6.029,13.3029,4.60102,2470.577,2023-4-04T05:11:00Z
2023-04-04T03:11:12Z,42.805,6.029,13.3025,4.60094,2470.553,2023-4-04T05:14:03Z
2023-04-04T03:14:16Z,42.805,6.029,13.3026,4.60094,2470.577,2023-4-04T05:17:06Z
2023-04-04T03:17:19Z,42.805,6.029,13.3031,4.60103,2470.553,2023-4-04T05:20:09Z
2023-04-04T03:20:22Z,42.805,6.029,13.3028,4.60106,2470.553,2023-4-04T05:23:12Z
2023-04-04T03:23:25Z,42.805,6.029,13.3025,4.60105,2470.53,2023-4-04T05:26:15Z
2023-04-04T03:26:28Z,42.805,6.029,13.3028,4.60105,2470.53,2023-4-04T05:29:18Z
2023-04-04T03:29:31Z,42.805,6.029,13.3039,4.60106,2470.553,2023-4-04T05:32:21Z
2023-04-04T03:32:34Z,42.805,6.029,13.3035,4.60101,2470.6,2023-4-04T05:35:24Z
2023-04-04T03:35:37Z,42.805,6.029,13.3025,4.60101,2470.577,2023-4-04T05:38:28Z
2023-04-04T03:38:40Z,42.805,6.029,13.3036,4.60104,2470.6,2023-4-04T05:41:31Z
2023-04-04T03:41:43Z,42.805,6.029,13.3029,4.60104,2470.591,2023-4-04T05:44:34Z
2023-04-04T03:44:46Z,42.805,6.029,13.3029,4.60102,2470.614,2023-4-04T05:47:37Z
2023-04-04T03:47:49Z,42.805,6.029,13.3035,4.60105,2470.6,2023-4-04T05:50:40Z
2023-04-04T03:50:52Z,42.805,6.029,13.3028,4.60101,2470.637,2023-4-04T05:53:43Z
2023-04-04T03:53:55Z,42.805,6.029,13.3032,4.60102,2470.6,2023-4-04T05:56:46Z
2023-04-04T03:56:59Z,42.805,6.029,13.3030,4.60102,2470.577,2023-4-04T05:59:49Z
2023-04-04T04:00:02Z,42.805,6.029,13.3034,4.60105,2470.614,2023-4-04T06:02:52Z
2023-04-04T04:03:05Z,42.805,6.029,13.3026,4.60106,2470.6,2023-4-04T06:05:55Z
2023-04-04T04:06:08Z,42.805,6.029,13.3033,4.60101,2470.67,2023-4-04T06:08:58Z
2023-04-04T04:09:11Z,42.805,6.029,13.3028,4.60103,2470.624,2023-4-04T06:12:01Z
2023-04-04T04:12:14Z,42.805,6.029,13.3031,4.60111,2470.646,2023-4-04T06:15:04Z
2023-04-04T04:15:17Z,42.805,6.029,13.3028,4.60103,2470.6,2023-4-04T06:18:08Z
2023-04-04T04:18:20Z,42.805,6.029,13.3029,4.60101,2470.624,2023-4-04T06:21:11Z
2023-04-04T04:21:23Z,42.805,6.029,13.3026,4.60102,2470.646,2023-4-04T06:24:14Z
2023-04-04T04:24:26Z,42.805,6.029,13.3026,4.60096,2470.67,2023-4-04T06:27:17Z
2023-04-04T04:27:29Z,42.805,6.029,13.3025,4.60099,2470.67,2023-4-04T06:30:20Z
2023-04-04T04:30:32Z,42.805,6.029,13.3026,4.60097,2470.637,2023-4-04T06:33:23Z
2023-04-04T04:33:35Z,42.805,6.029,13.3027,4.60097,2470.624,2023-4-04T06:36:26Z
2023-04-04T04:36:39Z,42.805,6.029,13.3029,4.60099,2470.661,2023-4-04T06:39:29Z
2023-04-04T04:39:42Z,42.805,6.029,13.3029,4.60101,2470.67,2023-4-04T06:42:32Z
2023-04-04T04:42:45Z,42.805,6.029,13.3029,4.60102,2470.646,2023-4-04T06:45:35Z
2023-04-04T04:45:48Z,42.805,6.029,13.3024,4.60097,2470.67,2023-4-04T06:48:38Z
2023-04-04T04:48:51Z,42.805,6.029,13.3030,4.60099,2470.67,2023-4-04T06:51:41Z
2023-04-04T04:51:54Z,42.805,6.029,13.3029,4.60100,2470.684,2023-4-04T06:54:44Z
2023-04-04T04:54:57Z,42.805,6.029,13.3025,4.60099,2470.624,2023-4-04T06:57:48Z
2023-04-04T04:58:00Z,42.805,6.029,13.3029,4.60102,2470.67,2023-4-04T07:00:51Z
2023-04-04T05:01:03Z,42.805,6.029,13.3028,4.60097,2470.661,2023-4-04T07:03:54Z
2023-04-04T05:04:06Z,42.805,6.029,13.3026,4.60095,2470.684,2023-4-04T07:06:57Z
2023-04-04T05:07:09Z,42.805,6.029,13.3024,4.60099,2470.661,2023-4-04T07:10:00Z
2023-04-04T05:10:12Z,42.805,6.029,13.3024,4.60102,2470.67,2023-4-04T07:13:03Z
2023-04-04T05:13:15Z,42.805,6.029,13.3027,4.60096,2470.646,2023-4-04T07:16:06Z
2023-04-04T05:16:19Z,42.805,6.029,13.3029,4.60100,2470.707,2023-4-04T07:19:09Z
2023-04-04T05:19:22Z,42.805,6.029,13.3030,4.60097,2470.717,2023-4-04T07:22:12Z
2023-04-04T05:22:25Z,42.805,6.029,13.3026,4.60093,2470.707,2023-4-04T07:25:15Z
2023-04-04T05:25:28Z,42.805,6.029,13.3028,4.60107,2470.707,2023-4-04T07:28:18Z
2023-04-04T05:28:31Z,42.805,6.029,13.3031,4.60102,2470.717,2023-4-04T07:31:21Z
2023-04-04T05:31:34Z,42.805,6.029,13.3027,4.60100,2470.707,2023-4-04T07:34:24Z
2023-04-04T05:34:37Z,42.805,6.029,13.3027,4.60097,2470.73,2023-4-04T07:37:28Z
2023-04-04T05:37:40Z,42.805,6.029,13.3026,4.60097,2470.73,2023-4-04T07:40:31Z
2023-04-04T05:40:43Z,42.805,6.029,13.3029,4.60102,2470.717,2023-4-04T07:43:34Z
2023-04-04T05:43:46Z,42.805,6.029,13.3024,4.60097,2470.684,2023-4-04T07:46:37Z
2023-04-04T05:46:49Z,42.805,6.029,13.3033,4.60101,2470.707,2023-4-04T07:49:40Z
2023-04-04T05:49:52Z,42.805,6.029,13.3034,4.60110,2470.707,2023-4-04T07:52:43Z
2023-04-04T05:52:55Z,42.805,6.029,13.3026,4.60097,2470.693,2023-4-04T07:55:46Z
2023-04-04T05:55:58Z,42.805,6.029,13.3029,4.60098,2470.717,2023-4-04T07:58:49Z
2023-04-04T05:59:02Z,42.805,6.029,13.3028,4.60099,2470.754,2023-4-04T08:01:52Z
2023-04-04T06:02:05Z,42.805,6.029,13.3028,4.60102,2470.707,2023-4-04T08:04:55Z
2023-04-04T06:05:08Z,42.805,6.029,13.3024,4.60094,2470.74,2023-4-04T08:07:58Z
2023-04-04T06:08:11Z,42.805,6.029,13.3027,4.60102,2470.73,2023-4-04T08:11:01Z
2023-04-04T06:11:14Z,42.805,6.029,13.3029,4.60102,2470.73,2023-4-04T08:14:04Z
2023-04-04T06:14:17Z,42.805,6.029,13.3029,4.60095,2470.73,2023-4-04T08:17:08Z
2023-04-04T06:17:20Z,42.805,6.029,13.3026,4.60099,2470.73,2023-4-04T08:20:11Z
2023-04-04T06:20:23Z,42.805,6.029,13.3028,4.60102,2470.693,2023-4-04T08:23:14Z
2023-04-04T06:23:26Z,42.805,6.029,13.3027,4.60099,2470.754,2023-4-04T08:26:17Z
2023-04-04T06:26:29Z,42.805,6.029,13.3030,4.60098,2470.717,2023-4-04T08:29:20Z
2023-04-04T06:29:32Z,42.805,6.029,13.3029,4.60095,2470.693,2023-4-04T08:32:23Z
2023-04-04T06:32:36Z,42.805,6.029,13.3031,4.60096,2470.754,2023-4-04T08:35:26Z
2023-04-04T06:35:39Z,42.805,6.029,13.3027,4.60099,2470.717,2023-4-04T08:38:29Z
2023-04-04T06:38:42Z,42.805,6.029,13.3027,4.60097,2470.717,2023-4-04T08:41:32Z
2023-04-04T06:41:45Z,42.805,6.029,13.3029,4.60096,2470.73,2023-4-04T08:44:35Z
2023-04-04T06:44:48Z,42.805,6.029,13.3025,4.60090,2470.74,2023-4-04T08:47:38Z
2023-04-04T06:47:51Z,42.805,6.029,13.3024,4.60099,2470.717,2023-4-04T08:50:42Z
2023-04-04T06:50:54Z,42.805,6.029,13.3030,4.60099,2470.754,2023-4-04T08:53:45Z
2023-04-04T06:53:57Z,42.805,6.029,13.3026,4.60092,2470.754,2023-4-04T08:56:48Z
2023-04-04T06:57:00Z,42.805,6.029,13.3028,4.60102,2470.693,2023-4-04T08:59:51Z
2023-04-04T07:00:03Z,42.805,6.029,13.3029,4.60099,2470.754,2023-4-04T09:02:54Z
2023-04-04T07:03:06Z,42.805,6.029,13.3029,4.60102,2470.74,2023-4-04T09:05:57Z
2023-04-04T07:06:09Z,42.805,6.029,13.3026,4.60095,2470.74,2023-4-04T09:09:00Z
2023-04-04T07:09:12Z,42.805,6.029,13.3029,4.60096,2470.717,2023-4-04T09:12:03Z
2023-04-04T07:12:15Z,42.805,6.029,13.3026,4.60101,2470.693,2023-4-04T09:15:06Z
2023-04-04T07:15:19Z,42.805,6.029,13.3026,4.60092,2470.73,2023-4-04T09:18:09Z
2023-04-04T07:18:22Z,42.805,6.029,13.3030,4.60096,2470.73,2023-4-04T09:21:12Z
2023-04-04T07:21:25Z,42.805,6.029,13.3026,4.60093,2470.67,2023-4-04T09:24:15Z
2023-04-04T07:24:28Z,42.805,6.029,13.3029,4.60090,2470.693,2023-4-04T09:27:18Z
2023-04-04T07:27:31Z,42.805,6.029,13.3027,4.60090,2470.703,2023-4-04T09:30:22Z
2023-04-04T07:30:34Z,42.805,6.029,13.3029,4.60097,2470.717,2023-4-04T09:33:25Z
2023-04-04T07:33:37Z,42.805,6.029,13.3030,4.60089,2470.67,2023-4-04T09:36:28Z
2023-04-04T07:36:40Z,42.805,6.029,13.3028,4.60098,2470.693,2023-4-04T09:39:31Z
2023-04-04T07:39:43Z,42.805,6.029,13.3029,4.60102,2470.67,2023-4-04T09:42:34Z
2023-04-04T07:42:46Z,42.805,6.029,13.3026,4.60097,2470.717,2023-4-04T09:45:37Z
2023-04-04T07:45:49Z,42.805,6.029,13.3031,4.60102,2470.693,2023-4-04T09:48:40Z
2023-04-04T07:48:52Z,42.805,6.029,13.3029,4.60097,2470.693,2023-4-04T09:51:43Z
2023-04-04T07:51:56Z,42.805,6.029,13.3029,4.60099,2470.73,2023-4-04T09:54:46Z
2023-04-04T07:54:59Z,42.805,6.029,13.3027,4.60088,2470.684,2023-4-04T09:57:49Z
2023-04-04T07:58:02Z,42.805,6.029,13.3027,4.60098,2470.717,2023-4-04T10:00:52Z
2023-04-04T08:01:05Z,42.805,6.029,13.3026,4.60095,2470.693,2023-4-04T10:03:55Z
2023-04-04T08:04:08Z,42.805,6.029,13.3025,4.60101,2470.717,2023-4-04T10:06:58Z
2023-04-04T08:07:11Z,42.805,6.029,13.3029,4.60094,2470.693,2023-4-04T10:10:02Z
2023-04-04T08:10:14Z,42.805,6.029,13.3026,4.60093,2470.707,2023-4-04T10:13:05Z
2023-04-04T08:13:17Z,42.805,6.029,13.3028,4.60098,2470.693,2023-4-04T10:16:08Z
2023-04-04T08:16:20Z,42.805,6.029,13.3029,4.60097,2470.684,2023-4-04T10:19:11Z
2023-04-04T08:19:23Z,42.805,6.029,13.3027,4.60092,2470.707,2023-4-04T10:22:14Z
2023-04-04T08:22:26Z,42.805,6.029,13.3027,4.60098,2470.693,2023-4-04T10:25:17Z
2023-04-04T08:25:29Z,42.805,6.029,13.3025,4.60092,2470.67,2023-4-04T10:28:20Z
2023-04-04T08:28:32Z,42.805,6.029,13.3024,4.60099,2470.707,2023-4-04T10:31:23Z
2023-04-04T08:31:34Z,42.805,6.029,13.3026,4.60096,2470.67,2023-4-04T10:34:25Z
2023-04-04T08:34:37Z,42.805,6.029,13.3026,4.60096,2470.754,2023-4-04T10:37:28Z
2023-04-04T08:37:40Z,42.805,6.029,13.3029,4.60097,2470.693,2023-4-04T10:40:31Z
2023-04-04T08:40:43Z,42.805,6.029,13.3027,4.60097,2470.693,2023-4-04T10:43:34Z
2023-04-04T08:43:47Z,42.805,6.029,13.3025,4.60097,2470.67,2023-4-04T10:46:37Z
2023-04-04T08:46:50Z,42.805,6.029,13.3030,4.60094,2470.646,2023-4-04T10:49:40Z
2023-04-04T08:49:53Z,42.805,6.029,13.3028,4.60093,2470.67,2023-4-04T10:52:43Z
2023-04-04T08:52:56Z,42.805,6.029,13.3033,4.60098,2470.717,2023-4-04T10:55:46Z
2023-04-04T08:55:59Z,42.805,6.029,13.3027,4.60093,2470.661,2023-4-04T10:58:49Z
2023-04-04T08:59:02Z,42.805,6.029,13.3026,4.60093,2470.684,2023-4-04T11:01:53Z
2023-04-04T09:02:05Z,42.805,6.029,13.3027,4.60097,2470.693,2023-4-04T11:04:56Z
2023-04-04T09:05:08Z,42.805,6.029,13.3024,4.60089,2470.707,2023-4-04T11:07:59Z
2023-04-04T09:08:11Z,42.805,6.029,13.3022,4.60094,2470.67,2023-4-04T11:11:02Z
2023-04-04T09:11:14Z,42.805,6.029,13.3028,4.60096,2470.67,2023-4-04T11:14:05Z
2023-04-04T09:14:17Z,42.805,6.029,13.3026,4.60096,2470.67,2023-4-04T11:17:08Z
2023-04-04T09:17:20Z,42.805,6.029,13.3029,4.60097,2470.661,2023-4-04T11:20:11Z
2023-04-04T09:20:23Z,42.805,6.029,13.3031,4.60094,2470.684,2023-4-04T11:23:14Z
2023-04-04T09:23:27Z,42.805,6.029,13.3029,4.60089,2470.637,2023-4-04T11:26:17Z
2023-04-04T09:26:30Z,42.805,6.029,13.3024,4.60103,2470.661,2023-4-04T11:29:20Z
2023-04-04T09:29:33Z,42.805,6.029,13.3029,4.60097,2470.646,2023-4-04T11:32:23Z
2023-04-04T09:32:36Z,42.805,6.029,13.3029,4.60097,2470.67,2023-4-04T11:35:26Z
2023-04-04T09:35:39Z,42.805,6.029,13.3027,4.60091,2470.646,2023-4-04T11:38:29Z
2023-04-04T09:38:42Z,42.805,6.029,13.3025,4.60091,2470.646,2023-4-04T11:41:33Z
2023-04-04T09:41:45Z,42.805,6.029,13.3026,4.60092,2470.646,2023-4-04T11:44:36Z
2023-04-04T09:44:48Z,42.805,6.029,13.3026,4.60099,2470.624,2023-4-04T11:47:39Z
2023-04-04T09:47:51Z,42.805,6.029,13.3031,4.60097,2470.624,2023-4-04T11:50:42Z
2023-04-04T09:50:54Z,42.805,6.029,13.3026,4.60097,2470.624,2023-4-04T11:53:45Z
2023-04-04T09:53:57Z,42.805,6.029,13.3025,4.60092,2470.661,2023-4-04T11:56:48Z
2023-04-04T09:57:00Z,42.805,6.029,13.3027,4.60090,2470.661,2023-4-04T11:59:51Z
2023-04-04T10:00:03Z,42.805,6.029,13.3028,4.60095,2470.614,2023-4-04T12:02:54Z
2023-04-04T10:03:07Z,42.805,6.029,13.3032,4.60107,2470.624,2023-4-04T12:05:57Z
2023-04-04T10:06:10Z,42.805,6.029,13.3029,4.60099,2470.646,2023-4-04T12:09:00Z
2023-04-04T10:09:13Z,42.805,6.029,13.3031,4.60101,2470.646,2023-4-04T12:12:03Z
2023-04-04T10:12:16Z,42.805,6.029,13.3028,4.60095,2470.637,2023-4-04T12:15:06Z
2023-04-04T10:15:19Z,42.805,6.029,13.3026,4.60092,2470.6,2023-4-04T12:18:10Z
2023-04-04T10:18:22Z,42.805,6.029,13.3029,4.60096,2470.637,2023-4-04T12:21:13Z
2023-04-04T10:21:25Z,42.805,6.029,13.3027,4.60097,2470.661,2023-4-04T12:24:16Z
2023-04-04T10:24:28Z,42.805,6.029,13.3027,4.60102,2470.614,2023-4-04T12:27:19Z
2023-04-04T10:27:31Z,42.805,6.029,13.3026,4.60101,2470.637,2023-4-04T12:30:22Z
2023-04-04T10:30:34Z,42.805,6.029,13.3031,4.60099,2470.6,2023-4-04T12:33:25Z
2023-04-04T10:33:37Z,42.805,6.029,13.3029,4.60097,2470.6,2023-4-04T12:36:28Z
2023-04-04T10:36:40Z,42.805,6.029,13.3030,4.60097,2470.591,2023-4-04T12:39:31Z
2023-04-04T10:39:44Z,42.805,6.029,13.3027,4.60095,2470.577,2023-4-04T12:42:34Z
2023-04-04T10:42:47Z,42.805,6.029,13.3029,4.60102,2470.6,2023-4-04T12:45:37Z
2023-04-04T10:45:50Z,42.805,6.029,13.3031,4.60095,2470.637,2023-4-04T12:48:40Z
2023-04-04T10:48:53Z,42.805,6.029,13.3029,4.60100,2470.577,2023-4-04T12:51:43Z
2023-04-04T10:51:56Z,42.805,6.029,13.3025,4.60096,2470.6,2023-4-04T12:54:46Z
2023-04-04T10:54:59Z,42.805,6.029,13.3031,4.60103,2470.577,2023-4-04T12:57:50Z
2023-04-04T10:58:02Z,42.805,6.029,13.3030,4.60099,2470.624,2023-4-04T13:00:53Z
2023-04-04T11:01:05Z,42.805,6.029,13.3029,4.60109,2470.614,2023-4-04T13:03:56Z
2023-04-04T11:04:08Z,42.805,6.029,13.3030,4.60102,2470.591,2023-4-04T13:06:59Z
2023-04-04T11:07:11Z,42.805,6.029,13.3029,4.60094,2470.614,2023-4-04T13:10:02Z
2023-04-04T11:10:14Z,42.805,6.029,13.3031,4.60094,2470.553,2023-4-04T13:13:05Z
2023-04-04T11:13:17Z,42.805,6.029,13.3034,4.60098,2470.6,2023-4-04T13:16:08Z
2023-04-04T11:16:20Z,42.805,6.029,13.3029,4.60099,2470.6,2023-4-04T13:19:11Z
2023-04-04T11:19:23Z,42.805,6.029,13.3031,4.60097,2470.6,2023-4-04T13:22:14Z
2023-04-04T11:22:27Z,42.805,6.029,13.3026,4.60098,2470.614,2023-4-04T13:25:17Z
2023-04-04T11:25:30Z,42.805,6.029,13.3033,4.60101,2470.614,2023-4-04T13:28:20Z
2023-04-04T11:28:33Z,42.805,6.029,13.3026,4.60092,2470.6,2023-4-04T13:31:23Z
2023-04-04T11:31:36Z,42.805,6.029,13.3021,4.60098,2470.577,2023-4-04T13:34:27Z
2023-04-04T11:34:39Z,42.805,6.029,13.3031,4.60094,2470.6,2023-4-04T13:37:30Z
2023-04-04T11:37:42Z,42.805,6.029,13.3030,4.60099,2470.567,2023-4-04T13:40:33Z
2023-04-04T11:40:45Z,42.805,6.029,13.3026,4.60090,2470.577,2023-4-04T13:43:36Z
2023-04-04T11:43:48Z,42.805,6.029,13.3029,4.60097,2470.553,2023-4-04T13:46:39Z
2023-04-04T11:46:51Z,42.805,6.029,13.3026,4.60097,2470.553,2023-4-04T13:49:42Z
2023-04-04T11:49:54Z,42.805,6.029,13.3029,4.60096,2470.591,2023-4-04T13:52:45Z
2023-04-04T11:52:57Z,42.805,6.029,13.3034,4.60102,2470.591,2023-4-04T13:55:48Z
2023-04-04T11:56:00Z,42.805,6.029,13.3028,4.60101,2470.591,2023-4-04T13:58:51Z
2023-04-04T11:59:04Z,42.805,6.029,13.3031,4.60097,2470.591,2023-4-04T14:01:54Z
2023-04-04T12:02:07Z,42.805,6.029,13.3031,4.60099,2470.553,2023-4-04T14:04:57Z
2023-04-04T12:05:10Z,42.805,6.029,13.3028,4.60097,2470.553,2023-4-04T14:08:00Z
2023-04-04T12:08:13Z,42.805,6.029,13.3031,4.60097,2470.577,2023-4-04T14:11:03Z
2023-04-04T12:11:16Z,42.805,6.029,13.3034,4.60094,2470.553,2023-4-04T14:14:07Z
2023-04-04T12:14:19Z,42.805,6.029,13.3033,4.60097,2470.577,2023-4-04T14:17:10Z
2023-04-04T12:17:22Z,42.805,6.029,13.3027,4.60099,2470.591,2023-4-04T14:20:13Z
2023-04-04T12:20:25Z,42.805,6.029,13.3026,4.60099,2470.53,2023-4-04T14:23:16Z
2023-04-04T12:23:28Z,42.805,6.029,13.3031,4.60099,2470.577,2023-4-04T14:26:19Z
2023-04-04T12:26:31Z,42.805,6.029,13.3031,4.60106,2470.577,2023-4-04T14:29:22Z
2023-04-04T12:29:34Z,42.805,6.029,13.3029,4.60103,2470.544,2023-4-04T14:32:25Z
2023-04-04T12:32:38Z,42.805,6.029,13.3029,4.60104,2470.553,2023-4-04T14:35:29Z
2023-04-04T12:35:41Z,42.805,6.029,13.3033,4.60106,2470.567,2023-4-04T14:38:32Z
2023-04-04T12:38:44Z,42.805,6.029,13.3032,4.60102,2470.539,2023-4-04T14:41:35Z
2023-04-04T12:41:47Z,42.805,6.029,13.3030,4.60101,2470.53,2023-4-04T14:44:38Z
2023-04-04T12:44:50Z,42.805,6.029,13.3031,4.60108,2470.553,2023-4-04T14:47:41Z
2023-04-04T12:47:53Z,42.805,6.029,13.3032,4.60097,2470.53,2023-4-04T14:50:44Z
2023-04-04T12:50:57Z,42.805,6.029,13.3034,4.60106,2470.53,2023-4-04T14:53:47Z
2023-04-04T12:54:00Z,42.805,6.029,13.3031,4.60102,2470.567,2023-4-04T14:56:50Z
2023-04-04T12:57:03Z,42.805,6.029,13.3031,4.60102,2470.567,2023-4-04T14:59:53Z
2023-04-04T13:00:06Z,42.805,6.029,13.3029,4.60103,2470.553,2023-4-04T15:02:57Z
2023-04-04T13:03:09Z,42.805,6.029,13.3032,4.60100,2470.553,2023-4-04T15:06:00Z
2023-04-04T13:06:12Z,42.805,6.029,13.3030,4.60094,2470.544,2023-4-04T15:09:03Z
2023-04-04T13:09:15Z,42.805,6.029,13.3031,4.60101,2470.567,2023-4-04T15:12:06Z
2023-04-04T13:12:18Z,42.805,6.029,13.3028,4.60096,2470.567,2023-4-04T15:15:09Z
2023-04-04T13:15:21Z,42.805,6.029,13.3028,4.60105,2470.567,2023-4-04T15:18:12Z
2023-04-04T13:18:24Z,42.805,6.029,13.3031,4.60099,2470.567,2023-4-04T15:21:15Z
2023-04-04T13:21:27Z,42.805,6.029,13.3029,4.60105,2470.553,2023-4-04T15:24:18Z
2023-04-04T13:24:30Z,42.805,6.029,13.3031,4.60105,2470.553,2023-4-04T15:27:21Z
2023-04-04T13:27:33Z,42.805,6.029,13.3031,4.60102,2470.53,2023-4-04T15:30:24Z
2023-04-04T13:30:37Z,42.805,6.029,13.3029,4.60102,2470.53,2023-4-04T15:33:27Z
2023-04-04T13:33:40Z,42.805,6.029,13.3026,4.60102,2470.553,2023-4-04T15:36:30Z
2023-04-04T13:36:43Z,42.805,6.029,13.3029,4.60098,2470.553,2023-4-04T15:39:33Z
2023-04-04T13:39:46Z,42.805,6.029,13.3030,4.60101,2470.553,2023-4-04T15:42:37Z
2023-04-04T13:42:49Z,42.805,6.029,13.3031,4.60102,2470.553,2023-4-04T15:45:40Z
2023-04-04T13:45:52Z,42.805,6.029,13.3030,4.60106,2470.577,2023-4-04T15:48:43Z
2023-04-04T13:48:55Z,42.805,6.029,13.3032,4.60102,2470.567,2023-4-04T15:51:46Z
2023-04-04T13:51:58Z,42.805,6.029,13.3035,4.60103,2470.553,2023-4-04T15:54:49Z
2023-04-04T13:55:01Z,42.805,6.029,13.3038,4.60106,2470.553,2023-4-04T15:57:52Z
2023-04-04T13:58:04Z,42.805,6.029,13.3034,4.60102,2470.577,2023-4-04T16:00:55Z
2023-04-04T14:01:07Z,42.805,6.029,13.3032,4.60105,2470.53,2023-4-04T16:03:58Z
2023-04-04T14:04:10Z,42.805,6.029,13.3032,4.60102,2470.577,2023-4-04T16:07:01Z
2023-04-04T14:07:14Z,42.805,6.029,13.3030,4.60099,2470.553,2023-4-04T16:10:04Z
2023-04-04T14:10:17Z,42.805,6.029,13.3038,4.60103,2470.577,2023-4-04T16:13:07Z
2023-04-04T14:13:20Z,42.805,6.029,13.3033,4.60102,2470.553,2023-4-04T16:16:10Z
2023-04-04T14:16:23Z,42.805,6.029,13.3029,4.60098,2470.553,2023-4-04T16:19:14Z
2023-04-04T14:19:26Z,42.805,6.029,13.3032,4.60100,2470.577,2023-4-04T16:22:17Z
2023-04-04T14:22:29Z,42.805,6.029,13.3034,4.60096,2470.586,2023-4-04T16:25:20Z
2023-04-04T14:25:32Z,42.805,6.029,13.3030,4.60098,2470.553,2023-4-04T16:28:23Z
2023-04-04T14:28:35Z,42.805,6.029,13.3034,4.60102,2470.553,2023-4-04T16:31:26Z
2023-04-04T14:31:38Z,42.805,6.029,13.3032,4.60110,2470.577,2023-4-04T16:34:29Z
2023-04-04T14:34:41Z,42.805,6.029,13.3034,4.60101,2470.591,2023-4-04T16:37:32Z
2023-04-04T14:37:44Z,42.805,6.029,13.3036,4.60103,2470.553,2023-4-04T16:40:35Z
2023-04-04T14:40:47Z,42.805,6.029,13.3029,4.60097,2470.577,2023-4-04T16:43:38Z
2023-04-04T14:43:50Z,42.805,6.029,13.3029,4.60108,2470.577,2023-4-04T16:46:41Z
2023-04-04T14:46:54Z,42.805,6.029,13.3030,4.60104,2470.577,2023-4-04T16:49:44Z
2023-04-04T14:49:57Z,42.805,6.029,13.3027,4.60102,2470.567,2023-4-04T16:52:47Z
2023-04-04T14:53:00Z,42.805,6.029,13.3036,4.60102,2470.6,2023-4-04T16:55:50Z
2023-04-04T14:56:03Z,42.805,6.029,13.3034,4.60101,2470.553,2023-4-04T16:58:54Z
2023-04-04T14:59:06Z,42.805,6.029,13.3031,4.60104,2470.577,2023-4-04T17:01:57Z
2023-04-04T15:02:09Z,42.805,6.029,13.3029,4.60092,2470.614,2023-4-04T17:05:00Z
2023-04-04T15:05:12Z,42.805,6.029,13.3032,4.60099,2470.577,2023-4-04T17:08:03Z
2023-04-04T15:08:15Z,42.805,6.029,13.3032,4.60102,2470.577,2023-4-04T17:11:06Z
2023-04-04T15:11:18Z,42.805,6.029,13.3035,4.60102,2470.577,2023-4-04T17:14:09Z
2023-04-04T15:14:21Z,42.805,6.029,13.3033,4.60107,2470.614,2023-4-04T17:17:12Z